Погода в Верх-Тайменке

Россия / Кемеровская область (Кузбасс)     55°39′33″N   85°12′08″E
темп.,
°C
ветер,
м/с
пор.,
м/с
влажн.,
%
обл.,
%
осадки,
мм/ч
давл.,
гПа
погр.,
м
2 марта, вт
вт201:00−15св379498 0.6 1011219
04:00−16св3696100 0.2 1011225
07:00−17ссв2497100 0.4 1012172
10:00−16ссв249599 0.3 1013239
13:00−14ссз1189100 0.4 1014311
16:00−13зсз2390100 0.2 1015380
19:00−14з1296100 0.3 101630
22:00−16ююз019783 0.1 101720
3 марта, ср
ср301:00−18ю1110075 0.1 101720
04:00−18ю119878 0.0 101720
07:00−20ю0110081 0.1 101820
10:00−16ю129587 0.1 1019114
13:00−13ююз238891 0.1 1019359
16:00−11юз3490100 0.0 1019453
19:00−14ю239598 0.1 102021
22:00−14ююз359699 0.1 1022109
4 марта, чт
чт401:00−15ю499592 0.1 1022211
04:00−16ю5119473 0.0 1023284
07:00−14ю6149086 0.0 1023445
10:00−11ююз81493100 0.3 1021587
13:00−8ююз81387100 0.6 1020732
16:00−6ююз81489100 0.1 1018768
19:00−5ююз71588100 0.4 1018735
22:00−5ююз71587100 0.1 1017671
5 марта, пт
пт501:00−6ююз71585100 0.1 1016561
04:00−8ююз61586100 0.0 1014481
07:00−7ююз61383100 0.0 1014426
10:00−7ю61280100 0.0 1012431
13:00−4ююз91592100 0.5 10101107
16:00−4юз81394100 1.6 10101045
19:00−4зюз9168899 2.3 1014971
22:00−7юз8178738 0.0 1018711
6 марта, сб
сб601:00−7юз8169369 0.3 1018959
04:00−6юз91593100 1.2 10161054
07:00−6юз91791100 2.4 1016953
10:00−7юз91787100 0.5 1015946
13:00−6юз101687100 0.8 10141021
16:00−5юз101692100 0.4 10121077
19:00−6юз81591100 1.8 10131007
22:00−6юз71590100 0.2 1014793